STARLINK-1704 (47625 NORAD) Tracking and Keplerian Element Data

This shows tracking and keplerian element data for the satellite.

Feedback or suggestion? Click here.




ElementValue
Catalog47625
NameSTARLINK-1704
Epoch Orbit183
Epoch Day56.91667824
Epoch Year2021
RAAN53.6647
Inclination53.0489
Eccentricity0.0001153
Argument of Perigee65.9072
Mean Anonmoly26.3636
Mean Motion15.79531814
Decay Rate-0.01069049
L11 47625U 21012F 21056.91667824 -.01069049 00000-0 -63928-2 0 9998
L22 47625 53.0489 53.6647 0001153 65.9072 26.3636 15.79531814 1837

Live tracking and technical data element details for STARLINK-1704 (NORAD 47625). STARLINK-1704 can be tracked NOW for your location showing map with azimuth and elevation plus other details from your city location.

Track the satellite on the map from your city or location and see movement details for azimuth, elevation, latitude, longitude, range, height, and movement on the map or in text.







IsCatalogInMostPopularTable: catalog: 47625, numindb: 1
Update: records affected: 1



GetName: 47625 STARLINK-1704

Hit Count: updated at: Fri, 26 Feb 2021 09:53:07 GMT